This is the latest recevied weather packets stored in our database for station/object CX2SA-13. If no packets are shown the sender has not sent any weather packets the latest 10 day(s).
| Time | Temp. | Humidity | Pressure | Rain* | Wind** | Luminosity | Snow |
|---|---|---|---|---|---|---|---|
| 1777664684 | 21.67° C | 94% | 1006.1 hPa | 11.18 mm | - | - | - |
| 1777663785 | 21.67° C | 94% | 1006.4 hPa | 11.18 mm | - | - | - |
| 1777662884 | 21.67° C | 94% | 1006.4 hPa | 11.18 mm | - | - | - |
| 1777661985 | 21.67° C | 93% | 1006.1 hPa | 11.18 mm | - | - | - |
| 1777661086 | 22.22° C | 93% | 1006.4 hPa | 11.18 mm | - | - | - |
| 1777660184 | 21.67° C | 94% | 1006.4 hPa | 11.18 mm | - | - | - |
| 1777659285 | 21.67° C | 94% | 1006.1 hPa | 11.18 mm | - | - | - |
| 1777658384 | 21.67° C | 94% | 1006.4 hPa | 11.18 mm | - | - | - |
| 1777657484 | 21.11° C | 94% | 1006.1 hPa | 11.18 mm | - | - | - |
| 1777656585 | 21.67° C | 93% | 1006.4 hPa | 11.18 mm | - | - | - |
| 1777655684 | 21.67° C | 93% | 1006.4 hPa | 11.18 mm | - | - | - |
| 1777654785 | 21.11° C | 93% | 1006.7 hPa | 11.18 mm | - | - | - |
| 1777653885 | 20.56° C | 93% | 1006.7 hPa | 11.18 mm | - | - | - |
| 1777652984 | 20.56° C | 94% | 1007.4 hPa | 11.18 mm | - | - | - |
| 1777652085 | 20.56° C | 94% | 1007.4 hPa | 11.18 mm | - | - | - |
| 1777651186 | 20° C | 94% | 1007.4 hPa | 11.18 mm | - | - | - |
| 1777650284 | 20.56° C | 93% | 1007.7 hPa | 11.18 mm | - | - | - |
| 1777649385 | 20° C | 94% | 1007.7 hPa | 11.18 mm | - | - | - |
| 1777648484 | 19.44° C | 95% | 1007.7 hPa | 11.18 mm | - | - | - |
| 1777647584 | 19.44° C | 95% | 1008.1 hPa | 11.18 mm | - | - | - |
| 1777646685 | 18.89° C | 95% | 1008.1 hPa | 11.18 mm | - | - | - |
| 1777645784 | 18.33° C | 95% | 1008.4 hPa | 11.18 mm | - | - | - |
| 1777644885 | 17.78° C | 96% | 1008.4 hPa | 11.18 mm | - | - | - |
| 1777643986 | 17.22° C | 96% | 1008.8 hPa | 11.18 mm | - | - | - |
| 1777643084 | 17.22° C | 96% | 1008.4 hPa | 11.18 mm | - | - | - |
* Rain since midnight (hover to see other rain measurements)
** Current wind speed in m/s (hover to see current wind gust speed)